Weather History for Owensboro, KY

Change the Weather History Date:

Tuesday, December 18, 2012

  Actual Average Record
Temperature  
Mean Temperature 46 °F -  
Max Temperature 54 °F 45 °F 67 °F (1984)
Min Temperature 39 °F 26 °F 1 °F (1989)
Degree Days  
Heating Degree Days 18    
Moisture  
Dew Point 37 °F    
Average Humidity 73    
Maximum Humidity 87    
Minimum Humidity 51    
Precipitation  
Precipitation 0.00 in - - ()
Sea Level Pressure  
Sea Level Pressure 29.86 in    
Wind  
Wind Speed 11 mph (SW)    
Max Wind Speed 17 mph    
Max Gust Speed 21 mph    
Visibility 10 miles    
Events      
Averages and records for this station are not official NWS values.
T = Trace of Precipitation, MM = Missing Value Source: NWS Daily Summary

Daily Weather History Graph

Daily Weather History Graph

Search for Another Location

Airport:

Trip Planner

Search our weather history database for the weather conditions in past years. The results will help you decide how hot, cold, wet, or windy it might be!

Date:

Astronomy

Dec. 18, 2012 Rise Set
Actual Time 6:58 AM CST 4:32 PM CST
Civil Twilight 6:29 AM CST 5:01 PM CST
Nautical Twilight 5:56 AM CST 5:34 PM CST
Astronomical Twilight 5:24 AM CST 6:06 PM CST
Moon 10:44 AM CST (12/18) 10:51 PM CST (12/18)
Length of Visible Light 10h 32m
Length of Day
9h 33m
Waxing Crescent, 35% of the Moon is Illuminated
Dec 18
Waxing Crescent
Dec 19
First Quarter
Dec 28
Full
Jan 4
Last Quarter
Jan 11
New

Hourly Weather History & Observations

Time (CST) Temp. Windchill Dew Point Humidity Pressure Visibility Wind Dir Wind Speed Gust Speed Precip Events Conditions
12:16 AM 42.8 °F 35.8 °F 39.2 °F 87% 29.79 in 9.0 mi WNW 13.8 mph - N/A   Overcast
12:56 AM 41.9 °F 35.0 °F 37.9 °F 86% 29.81 in 10.0 mi WNW 12.7 mph - N/A   Overcast
1:56 AM 41.0 °F 34.3 °F 36.9 °F 85% 29.83 in 10.0 mi NW 11.5 mph - N/A   Overcast
2:56 AM 41.0 °F 33.5 °F 36.9 °F 85% 29.85 in 10.0 mi WNW 13.8 mph - N/A   Overcast
3:56 AM 39.9 °F 34.5 °F 36.0 °F 86% 29.86 in 10.0 mi NW 8.1 mph - N/A   Overcast
4:56 AM 39.9 °F 33.9 °F 34.9 °F 82% 29.88 in 10.0 mi WNW 9.2 mph - N/A   Overcast
5:56 AM 39.9 °F 37.8 °F 34.9 °F 82% 29.89 in 8.0 mi West 3.5 mph - N/A   Overcast
6:56 AM 39.9 °F 36.7 °F 34.9 °F 82% 29.89 in 8.0 mi WNW 4.6 mph - N/A   Overcast
7:56 AM 39.9 °F 36.7 °F 34.0 °F 79% 29.91 in 9.0 mi WSW 4.6 mph - N/A   Mostly Cloudy
8:56 AM 41.9 °F 36.3 °F 34.9 °F 76% 29.92 in 10.0 mi SSW 9.2 mph - N/A   Mostly Cloudy
9:56 AM 45.0 °F 39.7 °F 36.9 °F 73% 29.92 in 10.0 mi South 10.4 mph - N/A   Mostly Cloudy
10:14 AM 46.4 °F 41.1 °F 37.4 °F 71% 29.91 in 10.0 mi South 11.5 mph - N/A   Scattered Clouds
10:56 AM 47.8 °F - 37.9 °F 69% 29.91 in 10.0 mi South 9.2 mph - N/A   Clear
11:56 AM 50.9 °F - 38.8 °F 63% 29.91 in 10.0 mi South 17.3 mph - N/A   Clear
12:56 PM 52.0 °F - 38.8 °F 61% 29.86 in 10.0 mi South 12.7 mph - N/A   Clear
1:56 PM 54.9 °F - 37.9 °F 53% 29.82 in 10.0 mi South 13.8 mph 20.7 mph N/A   Clear
2:56 PM 54.9 °F - 36.9 °F 51% 29.81 in 10.0 mi South 13.8 mph - N/A   Clear
3:56 PM 52.9 °F - 38.8 °F 59% 29.80 in 10.0 mi South 12.7 mph - N/A   Clear
4:56 PM 50.0 °F - 37.9 °F 63% 29.78 in 10.0 mi South 11.5 mph - N/A   Clear
5:56 PM 46.9 °F - 36.0 °F 66% 29.80 in 10.0 mi South 9.2 mph - N/A   Clear
6:56 PM 50.0 °F - 36.9 °F 61% 29.80 in 10.0 mi SSW 16.1 mph - N/A   Clear
7:56 PM 50.0 °F - 37.9 °F 63% 29.83 in 10.0 mi SW 12.7 mph - N/A   Clear
8:56 PM 45.9 °F 42.3 °F 37.9 °F 74% 29.86 in 10.0 mi SW 6.9 mph - N/A   Clear
9:56 PM 43.9 °F 39.3 °F 37.9 °F 80% 29.88 in 10.0 mi SW 8.1 mph - N/A   Clear
10:56 PM 43.9 °F 39.3 °F 37.9 °F 80% 29.88 in 10.0 mi SW 8.1 mph - N/A   Clear
11:56 PM 41.9 °F 37.5 °F 37.9 °F 86% 29.91 in 10.0 mi SW 6.9 mph - N/A   Clear